• In Hungary
  • List of Countries
  • For 7 days
  • Water Temperature
  • Satellite Maps
  • Weather Map
  • News
  • Weather Widgets
  • user-avatar
    Login

    Hourly Weather Eisenstadt

    Today, 20 September, Thursday

    Time Temperature Precipitation Wind Pressure Humidity
    00:00 +18°C° 0 mm 1 mps 726 mmHg 73%
    01:00 +18°C° 0 mm 1 mps 726 mmHg 73%
    02:00 +16°C° 0 mm 1 mps 726 mmHg 74%
    03:00 +16°C° 0 mm 1 mps 726 mmHg 75%
    04:00 +16°C° 0 mm 1 mps 726 mmHg 76%
    05:00 +16°C° 0 mm 1 mps 726 mmHg 74%
    06:00 +18°C° 0 mm 1 mps 727 mmHg 73%
    07:00 +19°C° 0 mm 1 mps 727 mmHg 71%
    08:00 +21°C° 0 mm 1 mps 727 mmHg 64%
    09:00 +23°C° 0 mm 1 mps 727 mmHg 57%
    10:00 +25°C° 0 mm 1 mps 727 mmHg 49%
    11:00 +26°C° 0 mm 1 mps 727 mmHg 47%
    12:00 +27°C° 0 mm 1 mps 727 mmHg 44%
    13:00 +28°C° 0 mm 1 mps 727 mmHg 41%
    14:00 +28°C° 0 mm 1 mps 726 mmHg 43%
    15:00 +27°C° 0 mm 1 mps 726 mmHg 44%
    16:00 +27°C° 0 mm 1 mps 725 mmHg 45%
    17:00 +25°C° 0 mm 1 mps 725 mmHg 51%
    18:00 +23°C° 0 mm 1 mps 725 mmHg 56%
    19:00 +21°C° 0 mm 1 mps 725 mmHg 62%
    20:00 +20°C° 0 mm 1 mps 725 mmHg 64%
    21:00 +20°C° 0 mm 1 mps 725 mmHg 65%
    22:00 +19°C° 0 mm 1 mps 725 mmHg 67%
    23:00 +19°C° 0 mm 1 mps 725 mmHg 68%

    Tomorrow, 21 September, Friday

    Time Temperature Precipitation Wind Pressure Humidity
    00:00 +18°C° 0 mm 1 mps 724 mmHg 69%
    01:00 +18°C° 0 mm 1 mps 724 mmHg 70%
    02:00 +18°C° 0 mm 1 mps 724 mmHg 71%
    03:00 +16°C° 0 mm 1 mps 724 mmHg 72%
    04:00 +16°C° 0 mm 1 mps 723 mmHg 73%
    05:00 +16°C° 0 mm 1 mps 723 mmHg 73%
    06:00 +18°C° 0 mm 1 mps 723 mmHg 72%
    07:00 +18°C° 0 mm 1 mps 723 mmHg 71%
    08:00 +20°C° 0 mm 2 mps 723 mmHg 63%
    09:00 +22°C° 0 mm 3 mps 723 mmHg 55%
    10:00 +26°C° 0 mm 3 mps 723 mmHg 47%
    11:00 +27°C° 0 mm 3 mps 723 mmHg 44%
    12:00 +28°C° 0 mm 4 mps 723 mmHg 41%
    13:00 +29°C° 0 mm 4 mps 722 mmHg 38%
    14:00 +29°C° 0 mm 4 mps 722 mmHg 39%
    15:00 +28°C° 0 mm 3 mps 722 mmHg 41%
    16:00 +28°C° 0 mm 3 mps 721 mmHg 42%
    17:00 +26°C° 0 mm 3 mps 721 mmHg 49%
    18:00 +24°C° 0 mm 2 mps 721 mmHg 55%
    19:00 +21°C° 0 mm 2 mps 721 mmHg 62%
    20:00 +20°C° 0 mm 2 mps 722 mmHg 63%
    21:00 +20°C° 0 mm 2 mps 722 mmHg 64%
    22:00 +20°C° 0 mm 2 mps 722 mmHg 65%
    23:00 +19°C° 0 mm 2 mps 722 mmHg 66%

    Day after tomorrow, 22 September, Saturday

    Time Temperature Precipitation Wind Pressure Humidity
    00:00 +19°C° 0 mm 2 mps 723 mmHg 67%
    01:00 +19°C° 0 mm 2 mps 723 mmHg 69%
    02:00 +18°C° 0 mm 3 mps 723 mmHg 70%
    03:00 +17°C° 0 mm 5 mps 724 mmHg 72%
    04:00 +16°C° 0 mm 6 mps 724 mmHg 74%
    05:00 +15°C° 0.3 mm 6 mps 725 mmHg 73%
    06:00 +14°C° 0.3 mm 6 mps 725 mmHg 72%
    07:00 +13°C° 0.3 mm 6 mps 726 mmHg 71%
    08:00 +12°C° 1.4 mm 5 mps 727 mmHg 75%
    09:00 +11°C° 1.4 mm 4 mps 727 mmHg 78%
    10:00 +10°C° 1.4 mm 4 mps 728 mmHg 82%
    11:00 +10°C° 1.1 mm 3 mps 728 mmHg 82%
    12:00 +12°C° 1.1 mm 2 mps 728 mmHg 82%
    13:00 +12°C° 1.1 mm 1 mps 728 mmHg 82%
    14:00 +12°C° 0.2 mm 2 mps 728 mmHg 82%
    15:00 +12°C° 0.2 mm 2 mps 728 mmHg 82%
    16:00 +12°C° 0.2 mm 2 mps 728 mmHg 82%
    17:00 +12°C° 0 mm 2 mps 728 mmHg 83%
    18:00 +12°C° 0 mm 2 mps 728 mmHg 84%
    19:00 +10°C° 0 mm 2 mps 728 mmHg 85%
    20:00 +10°C° 0 mm 2 mps 728 mmHg 86%
    21:00 +10°C° 0 mm 2 mps 728 mmHg 86%
    22:00 +10°C° 0 mm 2 mps 729 mmHg 86%
    23:00 +10°C° 0 mm 2 mps 728 mmHg 85%

    23 September, Sunday

    Time Temperature Precipitation Wind Pressure Humidity
    00:00 +11°C° 0 mm 1 mps 728 mmHg 83%
    01:00 +12°C° 0 mm 1 mps 728 mmHg 82%
    02:00 +12°C° 0 mm 1 mps 728 mmHg 82%
    03:00 +12°C° 0 mm 1 mps 728 mmHg 82%
    04:00 +12°C° 0 mm 1 mps 727 mmHg 82%
    05:00 +12°C° 0 mm 2 mps 727 mmHg 82%
    06:00 +12°C° 0 mm 2 mps 727 mmHg 82%
    07:00 +12°C° 0 mm 2 mps 727 mmHg 82%
    08:00 +13°C° 0 mm 2 mps 727 mmHg 78%
    09:00 +13°C° 0 mm 3 mps 726 mmHg 73%
    10:00 +14°C° 0 mm 3 mps 726 mmHg 69%
    11:00 +17°C° 0 mm 4 mps 726 mmHg 63%
    12:00 +19°C° 0 mm 4 mps 725 mmHg 56%
    13:00 +21°C° 0 mm 4 mps 724 mmHg 50%
    14:00 +21°C° 0 mm 4 mps 723 mmHg 51%
    15:00 +21°C° 0 mm 4 mps 723 mmHg 52%
    16:00 +22°C° 0 mm 4 mps 722 mmHg 54%
    17:00 +20°C° 0 mm 4 mps 721 mmHg 59%
    18:00 +19°C° 0 mm 3 mps 721 mmHg 64%
    19:00 +18°C° 0 mm 3 mps 720 mmHg 70%
    20:00 +18°C° 0 mm 3 mps 720 mmHg 73%
    21:00 +17°C° 0 mm 3 mps 719 mmHg 76%
    22:00 +17°C° 0 mm 3 mps 719 mmHg 80%
    23:00 +17°C° 0 mm 3 mps 718 mmHg 82%

    24 September, Monday

    Time Temperature Precipitation Wind Pressure Humidity
    00:00 +17°C° 0 mm 3 mps 717 mmHg 84%
    01:00 +16°C° 0 mm 3 mps 717 mmHg 86%
    02:00 +15°C° 0.6 mm 4 mps 717 mmHg 85%
    03:00 +15°C° 0.6 mm 5 mps 718 mmHg 84%
    04:00 +15°C° 0.6 mm 6 mps 719 mmHg 83%
    05:00 +14°C° 0.5 mm 6 mps 720 mmHg 79%
    06:00 +12°C° 0.5 mm 7 mps 721 mmHg 75%
    07:00 +11°C° 0.5 mm 7 mps 723 mmHg 70%
    08:00 +11°C° 0 mm 8 mps 724 mmHg 63%
    09:00 +12°C° 0 mm 9 mps 725 mmHg 55%
    10:00 +12°C° 0 mm 9 mps 727 mmHg 48%
    11:00 +12°C° 0 mm 9 mps 727 mmHg 46%
    12:00 +13°C° 0 mm 9 mps 728 mmHg 44%
    13:00 +13°C° 0 mm 9 mps 728 mmHg 42%
    14:00 +13°C° 0 mm 8 mps 729 mmHg 43%
    15:00 +14°C° 0 mm 7 mps 729 mmHg 43%
    16:00 +12°C° 0 mm 7 mps 729 mmHg 44%
    17:00 +12°C° 0 mm 5 mps 730 mmHg 49%
    18:00 +11°C° 0 mm 4 mps 730 mmHg 55%
    19:00 +9°C° 0 mm 3 mps 731 mmHg 60%
    20:00 +9°C° 0 mm 3 mps 731 mmHg 62%
    21:00 +8°C° 0 mm 3 mps 732 mmHg 65%
    22:00 +8°C° 0 mm 3 mps 732 mmHg 67%
    23:00 +7°C° 0 mm 3 mps 732 mmHg 68%

    25 September, Tuesday

    Time Temperature Precipitation Wind Pressure Humidity
    00:00 +7°C° 0 mm 3 mps 732 mmHg 70%
    01:00 +7°C° 0 mm 3 mps 732 mmHg 71%
    02:00 +5°C° 0 mm 3 mps 732 mmHg 73%
    03:00 +5°C° 0 mm 3 mps 732 mmHg 74%
    04:00 +5°C° 0 mm 3 mps 732 mmHg 75%
    05:00 +5°C° 0 mm 3 mps 733 mmHg 74%
    06:00 +7°C° 0 mm 3 mps 733 mmHg 72%
    07:00 +7°C° 0 mm 3 mps 733 mmHg 71%
    08:00 +7°C° 0 mm 4 mps 734 mmHg 62%
    09:00 +10°C° 0 mm 4 mps 734 mmHg 53%
    10:00 +12°C° 0 mm 5 mps 734 mmHg 44%
    11:00 +12°C° 0 mm 5 mps 734 mmHg 42%
    12:00 +13°C° 0 mm 5 mps 733 mmHg 40%
    13:00 +14°C° 0 mm 5 mps 733 mmHg 37%
    14:00 +14°C° 0 mm 5 mps 733 mmHg 38%
    15:00 +14°C° 0 mm 5 mps 732 mmHg 39%
    16:00 +13°C° 0 mm 5 mps 732 mmHg 40%
    17:00 +12°C° 0 mm 4 mps 732 mmHg 46%
    18:00 +10°C° 0 mm 4 mps 732 mmHg 52%
    19:00 +8°C° 0 mm 3 mps 733 mmHg 58%
    20:00 +8°C° 0 mm 3 mps 733 mmHg 60%
    21:00 +8°C° 0 mm 3 mps 733 mmHg 62%
    22:00 +8°C° 0 mm 3 mps 733 mmHg 64%
    23:00 +7°C° 0 mm 3 mps 733 mmHg 67%
    Show more